[[{"header":{"parameterUnit":"m.s-1","parameterCategory":1,"la1":30.2991,"la2":30.254,"lo1":-89.0895,"lo2":-89.0444,"dy":0.0017,"dx":0.0017,"nx":28,"ny":28,"refTime":"2024-06-18T03:00:00:Z","depth":0,"parameterNumber":2,"parameterNumberName":"U-component_of_WINDS"},"data":[0,0,0,0,0,0,0,0,0,0,0,0,0,0,0,0,0,0,0,0,0,0,0,0,0,0,0,0,0,0,0,0,0,0,0,0,0,0,0,0,0,0,0,0,0,0,0,0,0,0,0,0,0,0,0,0,0,0,-8.8701,-8.87,0,-8.8543,-8.8542,-8.854,-8.8236,-8.823,-8.8225,-8.8219,-8.8065,-8.8066,-8.8067,0,0,0,0,0,0,0,0,0,0,0,0,0,-8.8748,-8.8749,-8.8702,-8.87,-8.8698,-8.8544,-8.8542,-8.8539,-8.8237,-8.823,-8.8223,-8.8216,-8.8064,-8.8066,-8.8067,0,0,0,0,0,0,0,0,0,0,0,0,0,-8.8673,-8.8749,-8.8702,-8.8528,-8.8511,-8.8544,-8.8541,-8.8539,-8.8239,-8.823,-8.8221,-8.8213,-8.8064,-8.8066,-8.8068,-8.826,0,0,-8.8074,-8.8075,0,0,0,0,0,0,0,0,-8.8678,-8.8672,-8.8556,-8.854,-8.8521,-8.84,-8.8501,-8.8446,-8.8241,-8.8343,-8.8219,-8.8208,-8.8184,-8.8176,-8.8166,-8.8252,-8.8246,-8.8074,-8.8076,-8.8077,-8.8077,0,0,0,0,0,0,0,-8.8683,-8.8677,-8.8639,-8.8554,-8.8533,-8.846,-8.844,-8.8489,-8.8316,-8.8333,-8.8311,-8.8296,-8.8173,-8.8165,-8.816,-8.8243,-8.8074,-8.8076,-8.8078,-8.8079,-8.8476,-8.8485,0,0,0,0,0,0,-8.8713,-8.8683,-8.8644,-8.8634,-8.8579,-8.8467,-8.8444,-8.8448,-8.8314,-8.8285,-8.8303,-8.8282,-8.8165,-8.8158,-8.8154,-8.8365,-8.8077,-8.8079,-8.808,-8.8467,-8.8478,-8.8488,0,0,0,0,0,0,-8.8715,-8.8712,-8.865,-8.8653,-8.8639,-8.8475,-8.8483,-8.845,-8.8441,-8.8291,-8.826,-8.8326,-8.8158,-8.815,-8.8234,-8.8355,-8.808,-8.8082,-8.8456,-8.847,-8.8483,-8.8793,0,0,0,0,0,0,-8.8718,-8.8715,-8.8785,-8.8656,-8.864,-8.8733,-8.849,-8.8453,-8.8444,-8.8415,-8.8304,-8.8278,-8.815,-8.8232,-8.8236,-8.8353,-8.8083,-8.8444,-8.8462,-8.8478,-8.8771,-8.8816,-8.8854,0,0,0,0,0,-8.8721,-8.8881,-8.879,-8.8787,-8.8723,-8.874,-8.8731,-8.8579,-8.8456,-8.8524,-8.8429,-8.8281,-8.8343,-8.8244,-8.8245,-8.8365,-8.8436,-8.8457,-8.8477,-8.8752,-8.8807,-8.8853,0,0,0,0,0,0,-8.903,-8.886,-8.8758,-8.8881,-8.8827,-8.8689,-8.8771,-8.8642,-8.8624,-8.8598,-8.8412,-8.839,-8.8498,-8.844,-8.8333,-8.8542,-8.8366,-8.8388,-8.8575,-8.8625,-8.8666,-8.8675,-8.8085,0,0,0,0,0,-8.9112,-8.9138,-8.899,-8.9113,-8.909,-8.8937,-8.8939,-8.8826,-8.8764,-8.874,-8.865,-8.8597,-8.8603,-8.8612,-8.861,-8.8763,-8.8733,-8.8847,-8.8888,-8.8923,-8.8943,-8.9016,-8.9063,-8.8556,-8.8556,-8.8556,0,0,-8.9283,-8.9194,-8.9221,-8.9172,-8.9117,-8.9149,-8.8919,-8.8964,-8.8985,-8.8747,-8.8818,-8.8752,-8.868,-8.8799,-8.8846,-8.8754,-8.9077,-8.8949,-8.8978,-8.8979,-8.9042,-8.909,-8.9133,-8.857,-8.8568,-8.8566,0,0,-8.9608,-8.9545,-8.9637,-8.9587,-8.9505,-8.9402,-8.9426,-8.9307,-8.9252,-8.9321,-8.9142,-8.9167,-8.9184,-8.9139,-8.9119,-8.9429,-8.9291,-8.9434,-8.9649,-8.9722,-8.9762,-8.9797,-8.9903,-8.9944,-8.9456,-8.9456,-8.9457,0,-8.983,-8.9868,-8.9703,-8.9756,-8.974,-8.9524,-8.9617,-8.9577,-8.9502,-8.9496,-8.9394,-8.9408,-8.9345,-8.9448,-8.9523,-8.9516,-8.9535,-8.9443,-8.977,-8.9802,-8.9832,-8.9932,-8.9973,-8.9474,-8.9472,-8.947,-8.9468,0,-9.0144,-9.0174,-9.0259,-9.0187,-9.0181,-9.0256,-9.0102,-9.0116,-9.0006,-8.9914,-8.9987,-8.9904,-8.988,-8.9898,-8.9792,-8.9986,-8.993,-8.9803,-8.962,-8.9901,-8.9991,-9.0028,-8.9499,-8.9492,-8.9487,-8.9483,0,0,-9.0655,-9.0491,-9.0525,-9.0488,-9.0384,-9.0404,-9.047,-9.0444,-9.0458,-9.0415,-9.0463,-9.0483,-9.0362,-9.034,-9.0227,-9.0293,-9.0539,-9.0155,-9.0151,-9.0226,-9.0744,-9.0837,-9.0884,-9.0449,-9.0456,-9.0461,-9.0748,0,-9.0953,-9.1051,-9.0904,-9.1036,-9.106,-9.0857,-9.0914,-9.0857,-9.0774,-9.0784,-9.0694,-9.0708,-9.0551,-9.0535,-9.0592,-9.0497,-9.064,-9.0475,-9.0492,-9.0494,-9.051,-9.0931,-9.103,-9.1304,-9.0783,-9.0789,-9.0793,0,-9.1313,-9.1282,-9.1416,-9.1301,-9.1306,-9.1359,-9.1322,-9.1335,-9.1267,-9.1202,-9.1178,-9.1043,-9.11,-9.0928,-9.1003,-9.0894,-9.0893,-9.0849,-9.0856,-9.0847,-9.0657,-9.093,-9.1388,-9.1428,-9.0848,-9.0843,-9.0839,0,-9.1666,-9.1661,-9.1738,-9.1714,-9.1584,-9.1625,-9.1574,-9.1496,-9.149,-9.146,-9.1453,-9.1433,-9.1421,-9.1408,-9.1272,-9.116,-9.1363,-9.118,-9.1309,-9.1313,-9.1356,-9.1355,-9.1817,-9.1366,-9.1365,-9.1365,-9.1364,0,-9.2011,-9.2099,-9.1894,-9.1942,-9.2035,-9.1869,-9.1966,-9.1894,-9.1828,-9.1858,-9.1685,-9.1718,-9.1538,-9.1553,-9.1448,-9.1524,-9.1522,-9.147,-9.144,-9.1482,-9.1488,-9.1475,-9.1451,-9.1375,-9.1373,-9.1371,-9.1369,0,-9.2419,-9.2286,-9.2356,-9.2227,-9.2197,-9.2271,-9.216,-9.22,-9.2107,-9.2148,-9.2148,-9.2003,-9.201,-9.1874,-9.1857,-9.1786,-9.1907,-9.1846,-9.1929,-9.1908,-9.2042,-9.203,-9.2508,-9.2561,-9.2082,-9.2087,-9.2091,0,-9.2644,-9.2707,-9.2584,-9.2591,-9.2547,-9.2561,-9.2553,-9.2393,-9.2392,-9.2319,-9.2367,-9.236,-9.2345,-9.2368,-9.2261,-9.2246,-9.218,-9.2349,-9.2177,-9.2216,-9.2177,-9.2173,-9.2177,-9.2384,-9.239,-9.2395,-9.2399,0,-9.3058,-9.2989,-9.2982,-9.2953,-9.2948,-9.2918,-9.2877,-9.2894,-9.2719,-9.2727,-9.2731,-9.272,-9.27,-9.2695,-9.266,-9.2607,-9.2475,-9.2455,-9.2482,-9.2524,-9.2567,-9.2541,-9.2022,-9.2443,-9.2438,-9.2435,-9.2433,-9.2431,-9.3377,-9.3422,-9.3342,-9.334,-9.3293,-9.3259,-9.3288,-9.3198,-9.3198,-9.3167,-9.3075,-9.3095,-9.3025,-9.2963,-9.2924,-9.2938,-9.2854,-9.2897,-9.2906,-9.2918,-9.2941,-9.257,-9.2932,-9.293,-9.2929,-9.2928,-9.2927,0,-9.3776,-9.3715,-9.3716,-9.3663,-9.3662,-9.3537,-9.3486,-9.3493,-9.3512,-9.3458,-9.3446,-9.3452,-9.3446,-9.334,-9.3321,-9.3353,-9.3291,-9.3353,-9.3347,-9.3336,-9.3019,-9.2993,-9.3403,-9.3403,-9.3403,-9.3403,-9.3403,-9.3403,-9.3984,-9.4052,-9.3975,-9.4019,-9.3957,-9.3972,-9.3954,-9.3922,-9.3877,-9.3889,-9.3883,-9.3813,-9.3738,-9.3713,-9.3702,-9.3671,-9.3671,-9.3753,-9.3701,-9.3405,-9.3359,-9.3315,-9.329,-9.3755,-9.3756,-9.4016,-9.4019,-9.4021]},{"header":{"parameterUnit":"m.s-1","parameterCategory":1,"la1":30.2991,"la2":30.254,"lo1":-89.0895,"lo2":-89.0444,"dy":0.0017,"dx":0.0017,"nx":28,"ny":28,"refTime":"2024-06-18T03:00:00:Z","depth":0,"parameterNumber":3,"parameterNumberName":"V-component_of_WINDS"},"data":[0,0,0,0,0,0,0,0,0,0,0,0,0,0,0,0,0,0,0,0,0,0,0,0,0,0,0,0,0,0,0,0,0,0,0,0,0,0,0,0,0,0,0,0,0,0,0,0,0,0,0,0,0,0,0,0,0,0,2.0417,2.0416,0,2.0277,2.0275,2.0273,2.012,2.0117,2.0115,2.0113,1.9965,1.9964,1.9962,0,0,0,0,0,0,0,0,0,0,0,0,0,2.0552,2.055,2.0417,2.0415,2.0414,2.0277,2.0275,2.0273,2.012,2.0117,2.0115,2.0112,1.9966,1.9964,1.9962,0,0,0,0,0,0,0,0,0,0,0,0,0,2.0461,2.055,2.0417,2.0321,2.0311,2.0277,2.0275,2.0272,2.0121,2.0117,2.0114,2.0111,1.9967,1.9964,1.9961,2.001,0,0,1.9953,1.9952,0,0,0,0,0,0,0,0,2.0466,2.0456,2.0337,2.0328,2.0316,2.0212,2.0268,2.0185,2.0121,2.0193,2.0113,2.0109,2.005,2.004,2.0021,2.0003,1.9997,1.9953,1.9951,1.995,1.9949,0,0,0,0,0,0,0,2.0473,2.0461,2.0361,2.0335,2.0323,2.0284,2.0268,2.0252,2.0142,2.0186,2.0175,2.016,2.0044,2.0024,2.0016,1.9995,1.9953,1.995,1.9948,1.9947,2.0013,2.0017,0,0,0,0,0,0,2.0494,2.0467,2.0366,2.0357,2.0385,2.0285,2.0266,2.0249,2.0141,2.0122,2.0163,2.0154,2.003,2.002,2.0011,2.0062,1.995,1.9947,1.9945,2.001,2.0014,2.0018,0,0,0,0,0,0,2.0497,2.0486,2.0371,2.0409,2.0392,2.0286,2.0268,2.0248,2.0228,2.0124,2.0103,2.0164,2.0027,2.0015,2.0012,2.0054,1.9946,1.9943,2.0006,2.0011,2.0016,2.0165,0,0,0,0,0,0,2.0502,2.0488,2.0506,2.0411,2.039,2.0376,2.027,2.0248,2.0224,2.021,2.0119,2.01,2.0024,2.0018,2.001,2.0049,1.9941,2.0002,2.0008,2.0014,2.0155,2.0174,2.019,0,0,0,0,0,2.0507,2.0552,2.0507,2.0496,2.041,2.0379,2.0367,2.0279,2.0228,2.0245,2.0179,2.0103,2.0052,2.0019,2.0008,2.0047,1.9998,2.0006,2.0014,2.0147,2.017,2.019,0,0,0,0,0,0,2.0652,2.0537,2.0487,2.0502,2.0452,2.0353,2.0371,2.0306,2.0267,2.0256,2.0148,2.0128,2.0139,2.0093,2.0058,2.0091,2.0015,2.0021,2.012,2.0141,2.0158,2.0168,1.9939,0,0,0,0,0,2.0686,2.0671,2.0572,2.0595,2.0572,2.0477,2.046,2.0397,2.034,2.0317,2.0251,2.0198,2.0169,2.0153,2.0121,2.0149,2.0127,2.0171,2.0189,2.0204,2.0209,2.0223,2.0241,2.0043,2.0043,2.0043,0,0,2.0755,2.0691,2.0687,2.0622,2.0576,2.0563,2.0459,2.0449,2.0438,2.0315,2.0309,2.026,2.0193,2.0208,2.021,2.0169,2.026,2.0214,2.0226,2.0223,2.0233,2.0252,2.0268,2.0048,2.0048,2.0047,0,0,2.0874,2.0825,2.0839,2.0796,2.0728,2.0665,2.0669,2.0581,2.0544,2.0538,2.0446,2.0432,2.0385,2.0342,2.0314,2.0424,2.0353,2.0417,2.0507,2.0521,2.0537,2.055,2.0589,2.0604,2.0423,2.0424,2.0424,0,2.0968,2.0945,2.0854,2.0851,2.0825,2.0717,2.0731,2.0693,2.0618,2.0603,2.056,2.0502,2.0449,2.0452,2.048,2.0461,2.0462,2.0425,2.0542,2.0554,2.0565,2.0601,2.0617,2.0432,2.0431,2.043,2.0429,0,2.1064,2.1051,2.1071,2.1004,2.0981,2.0986,2.0897,2.0885,2.0826,2.0768,2.0764,2.0698,2.0652,2.0649,2.059,2.0645,2.0622,2.0562,2.0483,2.0594,2.0626,2.0639,2.0444,2.0441,2.0438,2.0436,0,0,2.1265,2.1153,2.1161,2.1131,2.1051,2.1038,2.104,2.0997,2.0989,2.0943,2.0942,2.0908,2.0853,2.0822,2.0758,2.0771,2.0863,2.0709,2.0705,2.0739,2.092,2.0965,2.0983,2.0817,2.082,2.0821,2.0926,0,2.1369,2.1367,2.1287,2.1307,2.1293,2.1193,2.1195,2.1147,2.1094,2.1075,2.1016,2.0994,2.0923,2.0904,2.0913,2.085,2.0898,2.0842,2.0814,2.0814,2.0832,2.0999,2.1045,2.1147,2.0938,2.094,2.0941,0,2.1489,2.1453,2.1472,2.1394,2.1386,2.1389,2.1345,2.1329,2.1273,2.1233,2.1202,2.1131,2.1128,2.1057,2.1051,2.1015,2.1,2.0968,2.097,2.0962,2.0883,2.0995,2.1177,2.1192,2.096,2.0959,2.0957,0,2.1634,2.159,2.1596,2.1573,2.1483,2.1488,2.145,2.1391,2.1372,2.1334,2.1321,2.1283,2.1262,2.1234,2.1155,2.111,2.116,2.1081,2.1127,2.1129,2.1139,2.1139,2.132,2.1133,2.1132,2.1132,2.1132,0,2.1757,2.1772,2.166,2.1663,2.1679,2.1589,2.1606,2.1559,2.1508,2.1501,2.1412,2.1408,2.1304,2.1288,2.1227,2.1232,2.1224,2.1192,2.1175,2.1199,2.1203,2.1185,2.1176,2.1136,2.1135,2.1134,2.1134,0,2.1919,2.1845,2.1845,2.1762,2.1741,2.1756,2.1684,2.1684,2.1629,2.1621,2.1614,2.1526,2.1503,2.1423,2.1379,2.1338,2.1363,2.1331,2.1382,2.1371,2.1421,2.1417,2.1595,2.1615,2.1417,2.1419,2.1421,0,2.2001,2.2011,2.1931,2.1921,2.1888,2.1873,2.1854,2.1767,2.1751,2.1691,2.1699,2.1669,2.164,2.1609,2.154,2.1507,2.1473,2.1539,2.1467,2.1492,2.1473,2.1473,2.1474,2.1553,2.1556,2.1558,2.1559,0,2.2156,2.212,2.2096,2.2062,2.2042,2.201,2.1973,2.197,2.1873,2.186,2.1836,2.1815,2.1773,2.1745,2.1702,2.1662,2.1595,2.1583,2.1592,2.1615,2.1644,2.1629,2.1422,2.1578,2.1577,2.1575,2.1574,2.1573,2.2279,2.2285,2.223,2.2208,2.2172,2.214,2.2137,2.2083,2.2062,2.2022,2.1973,2.1956,2.1903,2.1839,2.1805,2.1791,2.1754,2.1766,2.1769,2.1773,2.1785,2.1649,2.1783,2.1782,2.1782,2.1781,2.1781,0,2.2428,2.239,2.2371,2.2323,2.2307,2.2248,2.2205,2.2195,2.2182,2.2139,2.2114,2.2089,2.2063,2.1995,2.1962,2.1964,2.1932,2.1958,2.1956,2.1948,2.182,2.1816,2.1984,2.1984,2.1984,2.1984,2.1984,2.1984,2.2504,2.251,2.2469,2.2457,2.2418,2.2402,2.2383,2.2354,2.2319,2.2296,2.2275,2.2232,2.2179,2.2142,2.2116,2.2097,2.2089,2.2124,2.2095,2.1976,2.1957,2.1938,2.1933,2.2124,2.2124,2.2224,2.2225,2.2225]}]]